Regional Weather Roundup
Issued by NWS Wakefield, VA

Home | Current Version | Previous Version | Text Only | Print | Product List | Glossary On
Versions: 1 2 3 4 5 6 7 8 9 10 11 12 13 14 15 16 17 18 19 20 21 22 23 24 25 26 27
000
ASUS41 KAKQ 231016
RWRAKQ

REGIONAL WEATHER ROUNDUP
NATIONAL WEATHER SERVICE WAKEFIELD VA
600 AM EDT WED AUG 23 2017

Note: "fair" indicates few or no clouds below 12,000 feet with no
significant weather and/or obstructions to visibility. * = Denotes
station may not report precipitation (e.g., rain,snow,etc.),
thunder or fog.

VAZ042-051-052>054-056-231100-
NORTHERN VIRGINIA

CITY           SKY/WX    TMP DP  RH WIND       PRES   REMARKS
WASH NATIONAL  CLOUDY    79  68  69 NW6       29.83R
DULLES         CLOUDY    74  69  85 NW3       29.84R
FORT BELVOIR   MOCLDY    73  69  90 NW6       29.83R
QUANTICO       MOCLDY    76  74  93 NW3       29.84R
FREDERICKSBRG* MOCLDY    75  75 100 CALM      29.83R
STAFFORD*      CLOUDY    71  71 100 CALM      29.88R
WARRENTON      MOCLDY    72  68  86 CALM      29.84S
CULPEPER*      CLOUDY    72  71  95 CALM      29.86R
MANASSAS*      CLOUDY    74  70  87 CALM      29.84R
LEESBURG*      CLOUDY    73  72  94 W5        29.86R
WINCHESTER     PTCLDY    70  64  83 CALM      29.86R
FRONT ROYAL*   PTSUNNY   70  68  94 CALM      29.85S
LURAY*         PTSUNNY   70  70 100 CALM      29.87R
$$

VAZ048-049-060>072-079>083-231100-
CENTRAL AND SOUTH CENTRAL VIRGINIA

CITY           SKY/WX    TMP DP  RH WIND       PRES   REMARKS
RICHMOND       PTCLDY    76  72  87 SW7       29.84R
CHESTERFIELD*  FAIR      75  71  87 CALM      29.85R
PETERSBURG*    CLEAR     73  73  98 SW3       29.85S
HANOVER        CLEAR     76  69  79 SW5       29.85R
TAPPAHANNOCK*  CLEAR     77  75  95 SW3       29.84R
QUINTON*       FAIR     N/A N/A N/A CALM      29.83S
CHARLOTTSVILLE PTCLDY    78  68  71 CALM      29.84S
GORDONSVILLE*  CLOUDY    73  71  94 CALM      29.84R
ORANGE*        CLOUDY    72  68  88 CALM      29.85R
LOUISA*        CLOUDY    73  70  88 SW3       29.84S
BUMPASS*       FAIR      73  73  99 SW5       29.84R
FARMVILLE*     CLEAR     72  71  95 CALM      29.85S
CREWE*         FAIR      74  69  87 CALM      29.86R
FORT PICKETT*  FAIR     N/A N/A N/A SW5       29.87R
CHASE CITY*    FAIR      71  71  99 CALM      29.87S
CLARKSVILLE*   FAIR      72  72 100 SW6       29.86S
SOUTH HILL*    CLEAR     72  72 100 S5        29.92S
LAWRENCEVILLE* FAIR      73  72  95 SW3       29.86S
EMPORIA*       CLEAR     72  72 100 CALM      29.87S
$$

VAZ088>098-231100-
SOUTHEAST VIRGINIA

CITY           SKY/WX    TMP DP  RH WIND       PRES   REMARKS
NORFOLK        CLEAR     78  75  90 SW10      29.85S
VIRGINIA BEACH PTCLDY    76  73  91 SW9       29.85R
NORFOLK NAVAL  PTCLDY    78  73  84 SW7       29.86S
WEST POINT*    CLEAR     77  73  86 SW3       29.84S
SALUDA*        FAIR      77  75  93 SW7       29.82R
NEWPORT NEWS   CLEAR     77  73  87 SW12      29.84S
LANGLEY AFB    CLEAR     77  74  90 SW13      29.84S
FORT EUSTIS    CLEAR     77  73  88 S6        29.82R
WILLIAMSBURG*  CLEAR     79  73  83 W6        29.85S
HR EXEC AP*    FAIR      75  72  88 SW7       29.83F
FRANKLIN*      CLEAR     75  72  91 SW5       29.86S
US460-WAKEFLD  CLEAR     75  74  96 SW5       29.85S
$$

VAZ020-022-025-037-045-231100-
WEST CENTRAL AND SOUTHWEST VIRGINIA

CITY           SKY/WX    TMP DP  RH WIND       PRES   REMARKS
STAUNTON*      CLOUDY    72  65  78 CALM      29.90S
WAYNESBORO*    CLOUDY    74  67  78 SW5       29.89F
HOT SPRINGS VA CLOUDY    64  63  94 W12G20    30.01F
LYNCHBURG      PTCLDY    72  70  93 S3        29.88S
DANVILLE       CLEAR     71  71 100 SW5       29.88S
SOUTH BOSTON*  FAIR      73  72  95 CALM      29.87R
MARTINSVILLE   CLEAR     68  67  97 CALM      29.93R FOG
ROANOKE        CLOUDY    75  67  76 W8        29.91S
BLACKSBURG     PTCLDY    68  67  97 CALM      29.99S
DUBLIN*        CLOUDY    71  67  88 W5        29.98S
MARION*        LGT RAIN  71  53  51 W6        30.02R
HILLSVILLE*    PTCLDY    69  61  75 CALM      29.99R
RICHLANDS*     LGT RAIN  67  62  84 W6        30.01S
WISE*            N/A     68  68 100 CALM      30.03S
ABINGDON*      CLOUDY    71  68  89 CALM      29.99R
$$

MDZ021>025-VAZ099-100-231100-
SOUTHERN MARYLAND AND THE DELMARVA PENINSULA

CITY           SKY/WX    TMP DP  RH WIND       PRES   REMARKS
PATUXENT RIVER PTCLDY    74  74 100 SW6       29.82R
BAY BRIDGE APT CLOUDY    77  70  78 NW8       29.81R
LEONARDTOWN    PTCLDY    73  72  94 CALM      29.85R
DOVER          PTCLDY    76  76 100 W3        29.79R
GEORGETOWN     CLEAR     79  75  87 SW5       29.80S
EASTON         PTCLDY    79  72  78 NW3       29.85R
CAMBRIDGE      CLEAR     75  73  94 CALM      29.81R
SALISBURY      PTCLDY    77  76  96 SW6       29.80S
OCEAN CITY     MOCLDY    77  76  96 SW6       29.81R
WALLOPS ISLAND CLEAR     78  76  93 W9        29.82R
ACCOMACK*      CLEAR     79  75  89 SW12      29.82S
$$

NCZ012>017-030>032-231100-
NORTH CENTRAL AND EASTERN NORTH CAROLINA

CITY           SKY/WX    TMP DP  RH WIND       PRES   REMARKS
ROANOKE RAPIDS FAIR      73  73 100 SW5       29.87S
RALEIGH        PTCLDY    76  73  91 SW8       29.89S
ELIZABETH CITY CLEAR     77  76  96 SW10      29.87F
AHOSKIE*         N/A     74  73  99 CALM      29.87F
EDENTON*       PTCLDY    79  75  86 SW8       29.89S
CURRITUCK*     CLEAR     77  74  91 SW6       29.87F
KILL DEVIL HLS CLEAR     78  73  84 CALM      29.88S
MANTEO         CLEAR     78  74  87 W12       29.90R
CAPE HATTERAS  CLEAR     80  78  94 W8        29.91S
TARBORO*       NOT AVBL
GOLDSBORO      PTCLDY    76  72  89 W3        29.91R
WASHINGTON     CLEAR     76  73  92 SW6       29.90S
GREENVILLE     CLEAR     77  75  94 SW6       29.91S
NEW BERN       CLEAR     76  74  93 SW7       29.92S
WILMINGTON     CLOUDY    79  75  87 W12       29.93R
$$

VAZ048-231100-
ELSEWHERE

CITY           SKY/WX    TMP DP  RH WIND       PRES   REMARKS
HARRISBURG PA  CLOUDY    74  68  81 NW9       29.82R
BALTIMORE      LGT RAIN  74  70  87 W7        29.81R
ANNAPOLIS      CLOUDY    79  72  79 W3        29.81R
ANDREWS AFB    CLOUDY    77  66  69 NW7       29.82R
PHILADELPHIA   CLOUDY    76  71  85 W7        29.80R
HENDERSON NC   CLEAR     71  69  92 SW6       29.89R
GREENSBORO     CLEAR     73  73 100 SW6       29.90S
ROCKY MOUNT    CLOUDY    76  75  97 S7        29.88S
$$

VAZ100-231100-
MARINE

STATION/POSITION TIME  TEMP    WIND        PRES    WAVE   SWELL
                       AIR SEA DIR/SP/G            HT/PER HT/PER
                 (UTC) (F)     (DEG/KT/KT) (MB)    (FT/S) (FT/S)
BRANDYWINE LGT   0942   78      10/  3/  3 1009.2R
CAPE MAY NJ      0948   78 78     CALM     1008.4R
LEWES DE         0942   78 77  250/  5/  6 1008.5F
15NM E FENWICK I 0950   78 78  230/ 14/ 16 1009.4R   4/ 6   2/10
OCEAN-CITY-INLET 0942   78 79  270/  4/  5 1009.6R
WACHAPREAGUE VA  0942   79 83  240/  6/ 10 1009.7F
THOMAS POINT MD  1000   78 81  290/  9/ 10   N/A
GOOSES REEF MD   1000   80 81  290/  6/ 10 1010.4    1
COVE POINT MD    0942   79     300/  5/  8 1010.2R
SOLOMONS ISLAND  0942   78 81  250/  4/  6   N/A
BISHOPS HEAD MD  0942   81 82  270/ 10/ 12 1009.8R
PINEY POINT MD   0942          300/  9/ 11   N/A
POTOMAC MD       1000   80 83  300/ 10/ 14 1009.0    1/ 3
CAMBRIDGE MD     0942   78 82              1010.2R
LEWISETTA VA     0942   78 82  320/  7/  8 1009.6R
RAPPAHANNOCK LGT 0942          230/ 17/ 19 1010.2F
STINGRAY PT      1000   80 82  260/ 16/ 19 1009.9    1/ 3
YORK RVR RNG VA  0942   80     250/ 15/ 18 1010.3F
YORKTOWN VA      0942   78 83  230/ 11/ 15 1009.7S
JAMESTOWN VA     1000      85  240/ 10/ 14   N/A     1
DOMINION TERM VA 0942   79     230/ 13/ 14 1010.6F
KIPTOPEKE VA     0942      81  240/ 15/ 19   N/A
CHES BAY BRIDGE  0942   79 81  240/ 16/ 18 1010.2F
CAPE HENRY VA    0942   78     220/ 10/ 14   N/A
WILLOUBY STN VA  0942   78     220/ 12/ 14 1010.5F
S CRANEY ISL VA  0942   78     220/  6/  9 1010.4F
CAPE HENRY BUOY  1000      78                N/A     4/10   2/11
1ST LANDING BUOY 1000   79 80              1010.4    1/ 3
64NM E OF VA BCH 0950   80 79  240/ 16/ 17 1011.7R   5/10   2/10
DUCK PIER NC     0942   80 67  230/ 12/ 18 1011.5R
44100 DUCK FRF   0905      80                N/A     4/10   2/11
44056 DUCK FRF   1000      70                N/A     2/10   2/11
OREGON INLET NC  0942   80 84  220/ 17/ 20 1012.0R
HATTERAS NC      0942   80 83  240/  8/ 11 1012.8F
DIAMOND SHLS NC  0950   83 85  250/ 17/ 19 1012.6F   4/10   3/10
CAPE LOOKOUT NC  1000   82     230/ 10/ 12 1012.8R
$$




USA.gov is the U.S. government's official web portal to all federal, state and local government web resources and services.